Time,TemperatureF,DewpointF,PressureIn,WindDirection,WindDirectionDegrees,WindSpeedMPH,WindSpeedGustMPH,Humidity,HourlyPrecipIn,Conditions,Clouds,dailyrainin,SoftwareType,DateUTC
2013-01-14 00:03:00,69.9,68.7,30.05,SSW,211,0.0,1.0,96,0.00,,---,0.00,VWS V13.01,2013-01-14 06:03:00,
2013-01-14 00:08:00,69.9,68.7,30.05,SSW,202,0.0,2.0,96,0.00,,---,0.00,VWS V13.01,2013-01-14 06:08:00,
2013-01-14 00:13:00,69.9,68.7,30.05,SSW,192,0.0,1.0,96,0.00,,---,0.00,VWS V13.01,2013-01-14 06:13:00,
2013-01-14 00:18:00,69.9,68.7,30.05,SE,140,0.0,1.0,96,0.00,,---,0.00,VWS V13.01,2013-01-14 06:18:00,
2013-01-14 00:23:00,69.9,68.7,30.05,ENE,67,0.0,1.0,96,0.00,,---,0.00,VWS V13.01,2013-01-14 06:23:00,
2013-01-14 00:28:00,69.9,68.7,30.05,WNW,286,0.0,1.0,96,0.00,,---,0.00,VWS V13.01,2013-01-14 06:28:00,
2013-01-14 00:33:00,69.9,68.7,30.05,South,182,0.0,0.0,96,0.00,,---,0.00,VWS V13.01,2013-01-14 06:33:00,
2013-01-14 00:38:00,69.9,68.7,30.05,SW,220,0.0,1.0,96,0.00,,---,0.00,VWS V13.01,2013-01-14 06:38:00,
2013-01-14 00:43:00,69.9,68.7,30.05,ENE,71,0.0,1.0,96,0.00,,---,0.00,VWS V13.01,2013-01-14 06:43:00,
2013-01-14 00:48:00,69.9,68.7,30.06,SE,136,0.0,1.0,96,0.00,,---,0.00,VWS V13.01,2013-01-14 06:48:00,
2013-01-14 00:53:00,69.9,68.7,30.06,South,184,0.0,1.0,96,0.00,,---,0.00,VWS V13.01,2013-01-14 06:53:00,
2013-01-14 00:58:00,69.9,68.7,30.06,SSW,211,1.0,9.0,96,0.00,,---,0.00,VWS V13.01,2013-01-14 06:58:00,
2013-01-14 01:03:00,69.9,68.7,30.06,SSW,201,0.0,0.0,96,0.00,,---,0.00,VWS V13.01,2013-01-14 07:03:00,
2013-01-14 01:08:00,69.9,68.7,30.06,SSW,196,0.0,1.0,96,0.00,,---,0.00,VWS V13.01,2013-01-14 07:08:00,
2013-01-14 01:13:00,69.9,68.7,30.06,SSW,211,0.0,0.0,96,0.00,,---,0.00,VWS V13.01,2013-01-14 07:13:00,
2013-01-14 01:18:00,69.9,68.7,30.06,SW,229,0.0,1.0,96,0.00,,---,0.00,VWS V13.01,2013-01-14 07:18:00,
2013-01-14 01:23:00,69.9,68.7,30.05,SSE,158,0.0,1.0,96,0.00,,---,0.00,VWS V13.01,2013-01-14 07:23:00,
2013-01-14 01:28:00,69.9,68.7,30.05,SSE,159,0.0,1.0,96,0.00,,---,0.00,VWS V13.01,2013-01-14 07:28:00,
2013-01-14 01:33:00,69.9,68.7,30.05,SE,142,0.0,1.0,96,0.00,,---,0.00,VWS V13.01,2013-01-14 07:33:00,
2013-01-14 01:38:00,69.9,69.0,30.05,South,175,0.0,2.0,97,0.00,,---,0.00,VWS V13.01,2013-01-14 07:38:00,
2013-01-14 01:43:00,69.9,69.0,30.05,ESE,105,0.0,0.0,97,0.00,,---,0.00,VWS V13.01,2013-01-14 07:43:00,
2013-01-14 01:48:00,69.9,69.0,30.05,South,184,0.0,1.0,97,0.00,,---,0.00,VWS V13.01,2013-01-14 07:48:00,
2013-01-14 01:53:00,69.9,69.0,30.06,SE,130,0.0,0.0,97,0.00,,---,0.00,VWS V13.01,2013-01-14 07:53:00,
2013-01-14 01:58:00,69.9,69.0,30.06,SE,127,0.0,2.0,97,0.00,,---,0.00,VWS V13.01,2013-01-14 07:58:00,
2013-01-14 02:03:00,69.9,69.0,30.06,SE,127,0.0,0.0,97,0.00,,---,0.00,VWS V13.01,2013-01-14 08:03:00,
2013-01-14 02:08:00,69.9,69.0,30.06,SE,127,0.0,1.0,97,0.00,,---,0.00,VWS V13.01,2013-01-14 08:08:00,
2013-01-14 02:13:00,69.9,69.0,30.06,SE,126,0.0,0.0,97,0.00,,---,0.00,VWS V13.01,2013-01-14 08:13:00,
2013-01-14 02:18:00,69.8,68.9,30.06,SE,138,0.0,0.0,97,0.00,,---,0.00,VWS V13.01,2013-01-14 08:18:00,
2013-01-14 02:23:00,69.9,69.0,30.06,SE,139,0.0,0.0,97,0.00,,---,0.00,VWS V13.01,2013-01-14 08:23:00,
2013-01-14 02:28:00,69.8,68.9,30.06,East,94,0.0,1.0,97,0.00,,---,0.00,VWS V13.01,2013-01-14 08:28:00,
2013-01-14 02:33:00,69.8,68.9,30.06,East,94,0.0,1.0,97,0.00,,---,0.00,VWS V13.01,2013-01-14 08:33:00,
2013-01-14 02:38:00,69.8,68.9,30.06,East,101,1.0,1.0,97,0.00,,---,0.00,VWS V13.01,2013-01-14 08:38:00,
2013-01-14 02:43:00,69.8,68.9,30.06,ESE,103,0.0,1.0,97,0.00,,---,0.00,VWS V13.01,2013-01-14 08:43:00,
2013-01-14 02:48:00,69.8,68.9,30.07,ESE,121,0.0,0.0,97,0.00,,---,0.00,VWS V13.01,2013-01-14 08:48:00,
2013-01-14 02:53:00,69.8,68.9,30.07,WSW,242,0.0,1.0,97,0.00,,---,0.00,VWS V13.01,2013-01-14 08:53:00,
2013-01-14 02:58:00,69.7,68.8,30.06,WSW,242,0.0,0.0,97,0.00,,---,0.00,VWS V13.01,2013-01-14 08:58:00,
2013-01-14 03:03:00,69.7,68.8,30.06,SSW,213,0.0,0.0,97,0.00,,---,0.00,VWS V13.01,2013-01-14 09:03:00,
2013-01-14 03:08:00,69.7,68.8,30.06,SW,214,0.0,1.0,97,0.00,,---,0.00,VWS V13.01,2013-01-14 09:08:00,
2013-01-14 03:13:00,69.7,68.8,30.06,South,186,0.0,1.0,97,0.00,,---,0.00,VWS V13.01,2013-01-14 09:13:00,
2013-01-14 03:18:00,69.7,68.8,30.06,East,89,0.0,1.0,97,0.00,,---,0.00,VWS V13.01,2013-01-14 09:18:00,
2013-01-14 03:23:00,69.6,68.7,30.06,ESE,115,0.0,0.0,97,0.00,,---,0.00,VWS V13.01,2013-01-14 09:23:00,
2013-01-14 03:28:00,69.6,68.7,30.06,ESE,115,0.0,1.0,97,0.00,,---,0.00,VWS V13.01,2013-01-14 09:28:00,
2013-01-14 03:33:00,69.6,68.7,30.06,ESE,115,0.0,1.0,97,0.00,,---,0.00,VWS V13.01,2013-01-14 09:33:00,
2013-01-14 03:38:00,69.6,68.7,30.06,ESE,113,0.0,2.0,97,0.00,,---,0.00,VWS V13.01,2013-01-14 09:38:00,
2013-01-14 03:43:00,69.6,68.7,30.07,ESE,115,0.0,1.0,97,0.00,,---,0.00,VWS V13.01,2013-01-14 09:43:00,
2013-01-14 03:48:00,69.5,68.6,30.06,ESE,115,0.0,0.0,97,0.00,,---,0.00,VWS V13.01,2013-01-14 09:48:00,
2013-01-14 03:53:00,69.6,68.7,30.06,ESE,116,0.0,0.0,97,0.00,,---,0.00,VWS V13.01,2013-01-14 09:53:00,
2013-01-14 03:58:00,69.5,68.6,30.06,ESE,116,0.0,0.0,97,0.00,,---,0.00,VWS V13.01,2013-01-14 09:58:00,
2013-01-14 04:03:00,69.5,68.6,30.07,ESE,116,0.0,0.0,97,0.00,,---,0.00,VWS V13.01,2013-01-14 10:03:00,
2013-01-14 04:08:00,69.5,68.6,30.07,ESE,116,0.0,0.0,97,0.00,,---,0.00,VWS V13.01,2013-01-14 10:08:00,
2013-01-14 04:13:00,69.5,68.6,30.06,ESE,106,0.0,3.0,97,0.00,,---,0.00,VWS V13.01,2013-01-14 10:13:00,
2013-01-14 04:18:00,69.5,68.6,30.06,ESE,111,0.0,4.0,97,0.00,,---,0.00,VWS V13.01,2013-01-14 10:18:00,
2013-01-14 04:23:00,69.4,68.5,30.06,SSE,150,0.0,1.0,97,0.00,,---,0.00,VWS V13.01,2013-01-14 10:23:00,
2013-01-14 04:28:00,69.4,68.5,30.06,SE,139,0.0,0.0,97,0.00,,---,0.00,VWS V13.01,2013-01-14 10:28:00,
2013-01-14 04:33:00,69.4,68.5,30.05,SE,139,0.0,0.0,97,0.00,,---,0.00,VWS V13.01,2013-01-14 10:33:00,
2013-01-14 04:38:00,69.4,68.5,30.05,SE,135,0.0,1.0,97,0.00,,---,0.00,VWS V13.01,2013-01-14 10:38:00,
2013-01-14 04:43:00,69.4,68.5,30.05,SE,129,0.0,0.0,97,0.00,,---,0.00,VWS V13.01,2013-01-14 10:43:00,
2013-01-14 04:48:00,69.3,68.4,30.05,ESE,111,0.0,0.0,97,0.00,,---,0.00,VWS V13.01,2013-01-14 10:48:00,
2013-01-14 04:53:00,69.3,68.4,30.05,ESE,111,0.0,1.0,97,0.00,,---,0.00,VWS V13.01,2013-01-14 10:53:00,
2013-01-14 04:58:00,69.3,68.4,30.05,South,184,0.0,0.0,97,0.00,,---,0.00,VWS V13.01,2013-01-14 10:58:00,
2013-01-14 05:03:00,69.2,68.3,30.06,South,175,0.0,0.0,97,0.00,,---,0.00,VWS V13.01,2013-01-14 11:03:00,
2013-01-14 05:08:00,69.2,68.3,30.06,South,175,0.0,1.0,97,0.00,,---,0.00,VWS V13.01,2013-01-14 11:08:00,
2013-01-14 05:13:00,69.2,68.3,30.06,SSE,150,0.0,0.0,97,0.00,,---,0.00,VWS V13.01,2013-01-14 11:13:00,
2013-01-14 05:18:00,69.2,68.3,30.07,SE,146,0.0,0.0,97,0.00,,---,0.00,VWS V13.01,2013-01-14 11:18:00,
2013-01-14 05:23:00,69.2,68.3,30.07,SE,146,0.0,0.0,97,0.00,,---,0.00,VWS V13.01,2013-01-14 11:23:00,
2013-01-14 05:28:00,69.2,68.3,30.07,SE,146,0.0,0.0,97,0.00,,---,0.00,VWS V13.01,2013-01-14 11:28:00,
2013-01-14 05:33:00,69.2,68.3,30.07,SE,146,0.0,1.0,97,0.00,,---,0.00,VWS V13.01,2013-01-14 11:33:00,
2013-01-14 05:38:00,69.2,68.3,30.07,SSE,148,0.0,1.0,97,0.00,,---,0.00,VWS V13.01,2013-01-14 11:38:00,
2013-01-14 05:43:00,69.2,68.3,30.08,SSE,148,0.0,0.0,97,0.00,,---,0.00,VWS V13.01,2013-01-14 11:43:00,
2013-01-14 05:48:00,69.3,68.4,30.08,SSW,211,0.0,5.0,97,0.00,,---,0.00,VWS V13.01,2013-01-14 11:48:00,
2013-01-14 05:53:00,69.2,68.3,30.08,SSW,211,0.0,0.0,97,0.00,,---,0.00,VWS V13.01,2013-01-14 11:53:00,
2013-01-14 05:58:00,69.2,68.3,30.08,South,175,0.0,0.0,97,0.00,,---,0.00,VWS V13.01,2013-01-14 11:58:00,
2013-01-14 06:03:00,69.2,68.3,30.09,SW,215,0.0,0.0,97,0.00,,---,0.00,VWS V13.01,2013-01-14 12:03:00,
2013-01-14 06:08:00,69.2,68.3,30.09,SW,215,0.0,0.0,97,0.00,,---,0.00,VWS V13.01,2013-01-14 12:08:00,
2013-01-14 06:13:00,69.2,68.3,30.09,South,188,0.0,1.0,97,0.00,,---,0.00,VWS V13.01,2013-01-14 12:13:00,
2013-01-14 06:18:00,69.2,68.3,30.09,SSW,207,0.0,7.0,97,0.00,,---,0.00,VWS V13.01,2013-01-14 12:18:00,
2013-01-14 06:23:00,69.2,68.3,30.09,South,179,0.0,0.0,97,0.00,,---,0.00,VWS V13.01,2013-01-14 12:23:00,
2013-01-14 06:28:00,69.1,68.2,30.09,SSW,207,0.0,1.0,97,0.00,,---,0.00,VWS V13.01,2013-01-14 12:28:00,
2013-01-14 06:33:00,69.1,68.2,30.09,SSW,207,0.0,0.0,97,0.00,,---,0.00,VWS V13.01,2013-01-14 12:33:00,
2013-01-14 06:38:00,69.0,68.1,30.09,SSW,207,0.0,0.0,97,0.00,,---,0.00,VWS V13.01,2013-01-14 12:38:00,
2013-01-14 06:43:00,69.0,68.1,30.10,SSW,207,0.0,0.0,97,0.00,,---,0.00,VWS V13.01,2013-01-14 12:43:00,
2013-01-14 06:48:00,69.0,68.1,30.10,SSW,207,0.0,0.0,97,0.00,,---,0.00,VWS V13.01,2013-01-14 12:48:00,
2013-01-14 06:53:00,69.0,68.1,30.10,SW,217,0.0,0.0,97,0.00,,---,0.00,VWS V13.01,2013-01-14 12:53:00,
2013-01-14 06:58:00,69.0,68.1,30.10,SW,219,0.0,1.0,97,0.00,,---,0.00,VWS V13.01,2013-01-14 12:58:00,
2013-01-14 07:03:00,69.0,68.1,30.10,SSW,194,0.0,0.0,97,0.00,,---,0.00,VWS V13.01,2013-01-14 13:03:00,
2013-01-14 07:08:00,69.0,68.1,30.10,SW,228,0.0,1.0,97,0.00,,---,0.00,VWS V13.01,2013-01-14 13:08:00,
2013-01-14 07:13:00,69.1,68.2,30.11,South,175,0.0,4.0,97,0.00,,---,0.00,VWS V13.01,2013-01-14 13:13:00,
2013-01-14 07:18:00,69.1,68.2,30.11,SW,215,0.0,1.0,97,0.00,,---,0.00,VWS V13.01,2013-01-14 13:18:00,
2013-01-14 07:23:00,69.2,68.3,30.11,South,169,0.0,1.0,97,0.00,,---,0.00,VWS V13.01,2013-01-14 13:23:00,
2013-01-14 07:28:00,69.2,68.3,30.10,NE,55,0.0,0.0,97,0.00,,---,0.00,VWS V13.01,2013-01-14 13:28:00,
2013-01-14 07:33:00,69.2,68.3,30.11,SSW,202,0.0,5.0,97,0.00,,---,0.00,VWS V13.01,2013-01-14 13:33:00,
2013-01-14 07:38:00,69.3,68.4,30.11,SSW,207,0.0,0.0,97,0.00,,---,0.00,VWS V13.01,2013-01-14 13:38:00,
2013-01-14 07:43:00,69.3,68.4,30.11,SW,236,0.0,1.0,97,0.00,,---,0.00,VWS V13.01,2013-01-14 13:43:00,
2013-01-14 07:48:00,69.4,68.5,30.11,SW,233,0.0,2.0,97,0.00,,---,0.00,VWS V13.01,2013-01-14 13:48:00,
2013-01-14 07:53:00,69.4,68.5,30.12,SSE,167,0.0,1.0,97,0.00,,---,0.00,VWS V13.01,2013-01-14 13:53:00,
2013-01-14 07:58:00,69.4,68.5,30.11,SSW,213,0.0,3.0,97,0.00,,---,0.00,VWS V13.01,2013-01-14 13:58:00,
2013-01-14 08:03:00,69.5,68.6,30.12,SSW,202,0.0,0.0,97,0.00,,---,0.00,VWS V13.01,2013-01-14 14:03:00,
2013-01-14 08:08:00,69.5,68.6,30.11,SSE,161,0.0,0.0,97,0.00,,---,0.00,VWS V13.01,2013-01-14 14:08:00,
2013-01-14 08:13:00,69.7,68.8,30.12,SSE,161,0.0,0.0,97,0.00,,---,0.00,VWS V13.01,2013-01-14 14:13:00,
2013-01-14 08:18:00,69.9,69.0,30.12,SE,142,0.0,0.0,97,0.00,,---,0.00,VWS V13.01,2013-01-14 14:18:00,
2013-01-14 08:23:00,70.0,69.1,30.12,SE,142,0.0,0.0,97,0.00,,---,0.00,VWS V13.01,2013-01-14 14:23:00,
2013-01-14 08:28:00,70.1,69.2,30.12,South,191,0.0,1.0,97,0.00,,---,0.00,VWS V13.01,2013-01-14 14:28:00,
2013-01-14 08:33:00,70.1,69.2,30.12,South,190,0.0,1.0,97,0.00,,---,0.00,VWS V13.01,2013-01-14 14:33:00,
2013-01-14 08:38:00,70.3,69.4,30.13,SSW,213,0.0,1.0,97,0.00,,---,0.00,VWS V13.01,2013-01-14 14:38:00,
2013-01-14 08:43:00,70.7,70.1,30.13,NE,45,0.0,0.0,98,0.00,,---,0.00,VWS V13.01,2013-01-14 14:43:00,
2013-01-14 08:48:00,70.7,69.8,30.13,NE,45,0.0,0.0,97,0.00,,---,0.00,VWS V13.01,2013-01-14 14:48:00,
2013-01-14 08:53:00,70.7,69.8,30.13,NE,46,0.0,1.0,97,0.00,,---,0.00,VWS V13.01,2013-01-14 14:53:00,
2013-01-14 08:58:00,70.8,69.9,30.13,NE,49,0.0,1.0,97,0.00,,---,0.00,VWS V13.01,2013-01-14 14:58:00,
2013-01-14 09:03:00,70.9,70.0,30.13,NE,49,0.0,1.0,97,0.00,,---,0.00,VWS V13.01,2013-01-14 15:03:00,
2013-01-14 09:08:00,71.4,70.5,30.13,NE,48,0.0,1.0,97,0.00,,---,0.00,VWS V13.01,2013-01-14 15:08:00,
2013-01-14 09:13:00,71.6,70.7,30.13,ESE,121,0.0,2.0,97,0.00,,---,0.00,VWS V13.01,2013-01-14 15:13:00,
2013-01-14 09:18:00,71.8,70.9,30.13,South,186,0.0,3.0,97,0.00,,---,0.00,VWS V13.01,2013-01-14 15:18:00,
2013-01-14 09:23:00,71.6,70.4,30.13,ESE,123,0.0,1.0,96,0.00,,---,0.00,VWS V13.01,2013-01-14 15:23:00,
2013-01-14 09:28:00,71.5,70.3,30.14,NNE,31,0.0,1.0,96,0.00,,---,0.00,VWS V13.01,2013-01-14 15:28:00,
2013-01-14 09:33:00,71.4,70.2,30.13,NNE,30,0.0,0.0,96,0.00,,---,0.00,VWS V13.01,2013-01-14 15:33:00,
2013-01-14 09:38:00,71.5,70.3,30.14,NNE,30,0.0,1.0,96,0.01,,---,0.01,VWS V13.01,2013-01-14 15:38:00,
2013-01-14 09:43:00,71.4,70.2,30.13,South,180,0.0,4.0,96,0.03,,---,0.03,VWS V13.01,2013-01-14 15:43:00,
2013-01-14 09:48:00,71.3,70.1,30.13,SSW,200,0.0,5.0,96,0.06,,---,0.06,VWS V13.01,2013-01-14 15:48:00,
2013-01-14 09:53:00,71.2,70.0,30.13,SSW,211,0.0,1.0,96,0.11,,---,0.11,VWS V13.01,2013-01-14 15:53:00,
2013-01-14 09:58:00,71.1,69.9,30.12,SW,229,0.0,1.0,96,0.21,,---,0.22,VWS V13.01,2013-01-14 15:58:00,
2013-01-14 10:03:00,70.9,69.7,30.12,South,171,0.0,5.0,96,0.36,,---,0.37,VWS V13.01,2013-01-14 16:03:00,
2013-01-14 10:08:00,70.7,69.5,30.12,NNW,335,1.0,3.0,96,0.37,,---,0.37,VWS V13.01,2013-01-14 16:08:00,
2013-01-14 10:13:00,70.7,69.5,30.11,ENE,69,0.0,4.0,96,0.37,,---,0.37,VWS V13.01,2013-01-14 16:13:00,
2013-01-14 10:18:00,70.7,69.5,30.12,ESE,107,0.0,3.0,96,0.37,,---,0.37,VWS V13.01,2013-01-14 16:18:00,
2013-01-14 10:23:00,71.0,69.8,30.12,SSW,197,3.0,7.0,96,0.37,,---,0.37,VWS V13.01,2013-01-14 16:23:00,
2013-01-14 10:28:00,71.2,70.3,30.12,SW,229,0.0,3.0,97,0.37,,---,0.37,VWS V13.01,2013-01-14 16:28:00,
2013-01-14 10:33:00,71.3,70.1,30.11,SSW,197,0.0,1.0,96,0.37,,---,0.37,VWS V13.01,2013-01-14 16:33:00,
2013-01-14 10:38:00,71.4,70.5,30.11,SE,127,0.0,1.0,97,0.37,,---,0.37,VWS V13.01,2013-01-14 16:38:00,
2013-01-14 10:43:00,71.2,70.0,30.11,SSE,168,0.0,2.0,96,0.35,,---,0.37,VWS V13.01,2013-01-14 16:43:00,
2013-01-14 10:48:00,71.4,70.5,30.11,South,171,0.0,5.0,97,0.32,,---,0.37,VWS V13.01,2013-01-14 16:48:00,
2013-01-14 10:53:00,71.5,70.3,30.11,South,173,0.0,0.0,96,0.28,,---,0.37,VWS V13.01,2013-01-14 16:53:00,
2013-01-14 10:58:00,71.4,70.2,30.11,ENE,73,0.0,3.0,96,0.23,,---,0.37,VWS V13.01,2013-01-14 16:58:00,
2013-01-14 11:03:00,71.5,70.3,30.10,ENE,74,0.0,0.0,96,0.05,,---,0.37,VWS V13.01,2013-01-14 17:03:00,
2013-01-14 11:08:00,71.4,70.2,30.10,South,185,0.0,1.0,96,0.00,,---,0.37,VWS V13.01,2013-01-14 17:08:00,
2013-01-14 11:13:00,71.7,70.8,30.10,WSW,238,0.0,1.0,97,0.01,,---,0.38,VWS V13.01,2013-01-14 17:13:00,
2013-01-14 11:18:00,71.5,70.3,30.09,SE,128,0.0,4.0,96,0.01,,---,0.38,VWS V13.01,2013-01-14 17:18:00,
2013-01-14 11:23:00,71.5,70.3,30.10,SW,229,2.0,2.0,96,0.01,,---,0.38,VWS V13.01,2013-01-14 17:23:00,
2013-01-14 11:28:00,71.6,70.7,30.10,SW,229,0.0,1.0,97,0.01,,---,0.38,VWS V13.01,2013-01-14 17:28:00,
2013-01-14 11:33:00,72.1,71.2,30.09,WSW,246,0.0,2.0,97,0.01,,---,0.38,VWS V13.01,2013-01-14 17:33:00,
2013-01-14 11:38:00,72.0,70.8,30.09,ESE,110,0.0,0.0,96,0.01,,---,0.38,VWS V13.01,2013-01-14 17:38:00,
2013-01-14 11:43:00,71.9,70.7,30.09,ENE,65,0.0,4.0,96,0.01,,---,0.38,VWS V13.01,2013-01-14 17:43:00,
2013-01-14 11:48:00,71.7,70.5,30.09,ENE,77,0.0,1.0,96,0.01,,---,0.38,VWS V13.01,2013-01-14 17:48:00,
2013-01-14 11:53:00,72.3,71.4,30.09,SSW,207,0.0,1.0,97,0.01,,---,0.38,VWS V13.01,2013-01-14 17:53:00,
2013-01-14 11:58:00,72.7,71.5,30.08,SSW,200,0.0,0.0,96,0.01,,---,0.38,VWS V13.01,2013-01-14 17:58:00,
2013-01-14 12:03:00,72.8,71.6,30.08,SSW,209,0.0,4.0,96,0.01,,---,0.38,VWS V13.01,2013-01-14 18:03:00,
2013-01-14 12:08:00,73.1,71.9,30.08,SSE,155,0.0,4.0,96,0.01,,---,0.38,VWS V13.01,2013-01-14 18:08:00,
2013-01-14 12:13:00,73.0,71.5,30.08,SSE,155,0.0,1.0,95,0.00,,---,0.38,VWS V13.01,2013-01-14 18:13:00,
2013-01-14 12:18:00,73.3,72.1,30.07,ESE,114,0.0,1.0,96,0.00,,---,0.38,VWS V13.01,2013-01-14 18:18:00,
2013-01-14 12:23:00,73.8,72.3,30.07,SE,125,0.0,1.0,95,0.00,,---,0.38,VWS V13.01,2013-01-14 18:23:00,
2013-01-14 12:28:00,74.4,72.9,30.08,SSW,202,0.0,3.0,95,0.00,,---,0.38,VWS V13.01,2013-01-14 18:28:00,
2013-01-14 12:33:00,74.5,72.3,30.08,SE,138,0.0,2.0,93,0.00,,---,0.38,VWS V13.01,2013-01-14 18:33:00,
2013-01-14 12:38:00,74.3,71.8,30.07,South,178,0.0,2.0,92,0.00,,---,0.38,VWS V13.01,2013-01-14 18:38:00,
2013-01-14 12:43:00,74.4,71.9,30.07,SSE,160,0.0,1.0,92,0.00,,---,0.38,VWS V13.01,2013-01-14 18:43:00,
2013-01-14 12:48:00,73.9,71.1,30.06,SW,234,2.0,3.0,91,0.00,,---,0.38,VWS V13.01,2013-01-14 18:48:00,
2013-01-14 12:53:00,73.5,70.7,30.07,SSE,156,0.0,5.0,91,0.00,,---,0.38,VWS V13.01,2013-01-14 18:53:00,
2013-01-14 12:58:00,73.0,70.2,30.07,SSE,148,0.0,1.0,91,0.00,,---,0.38,VWS V13.01,2013-01-14 18:58:00,
2013-01-14 13:03:00,72.9,70.4,30.07,South,173,0.0,3.0,92,0.00,,---,0.38,VWS V13.01,2013-01-14 19:03:00,
2013-01-14 13:08:00,72.8,70.7,30.07,South,171,0.0,2.0,93,0.00,,---,0.38,VWS V13.01,2013-01-14 19:08:00,
2013-01-14 13:13:00,72.9,70.8,30.07,SSW,198,1.0,2.0,93,0.00,,---,0.38,VWS V13.01,2013-01-14 19:13:00,
2013-01-14 13:18:00,72.7,70.2,30.07,SSE,162,0.0,1.0,92,0.00,,---,0.38,VWS V13.01,2013-01-14 19:18:00,
2013-01-14 13:23:00,72.4,69.9,30.07,South,178,0.0,1.0,92,0.00,,---,0.38,VWS V13.01,2013-01-14 19:23:00,
2013-01-14 13:28:00,72.4,69.9,30.08,SSE,161,0.0,0.0,92,0.00,,---,0.38,VWS V13.01,2013-01-14 19:28:00,
2013-01-14 13:33:00,72.2,69.8,30.08,SSW,196,0.0,1.0,92,0.00,,---,0.38,VWS V13.01,2013-01-14 19:33:00,
2013-01-14 13:38:00,72.1,70.0,30.08,SSW,194,0.0,1.0,93,0.00,,---,0.38,VWS V13.01,2013-01-14 19:38:00,
2013-01-14 13:43:00,72.1,70.0,30.08,SW,214,0.0,4.0,93,0.00,,---,0.38,VWS V13.01,2013-01-14 19:43:00,
2013-01-14 13:48:00,72.2,70.1,30.08,SSE,164,0.0,1.0,93,0.00,,---,0.38,VWS V13.01,2013-01-14 19:48:00,
2013-01-14 13:53:00,72.1,70.0,30.08,SSE,164,0.0,1.0,93,0.00,,---,0.38,VWS V13.01,2013-01-14 19:53:00,
2013-01-14 13:58:00,72.1,70.0,30.07,ESE,105,0.0,2.0,93,0.00,,---,0.38,VWS V13.01,2013-01-14 19:58:00,
2013-01-14 14:03:00,72.3,70.2,30.07,SSE,161,0.0,3.0,93,0.00,,---,0.38,VWS V13.01,2013-01-14 20:03:00,
2013-01-14 14:08:00,72.2,70.1,30.07,South,178,0.0,1.0,93,0.00,,---,0.38,VWS V13.01,2013-01-14 20:08:00,
2013-01-14 14:13:00,72.0,69.9,30.07,SE,140,0.0,0.0,93,0.00,,---,0.38,VWS V13.01,2013-01-14 20:13:00,
2013-01-14 14:18:00,71.8,69.7,30.08,SSW,199,0.0,4.0,93,0.00,,---,0.38,VWS V13.01,2013-01-14 20:18:00,
2013-01-14 14:23:00,71.8,69.7,30.08,SSE,158,0.0,0.0,93,0.00,,---,0.38,VWS V13.01,2013-01-14 20:23:00,
2013-01-14 14:28:00,71.7,69.9,30.08,SSE,152,0.0,0.0,94,0.00,,---,0.38,VWS V13.01,2013-01-14 20:28:00,
2013-01-14 14:33:00,71.6,69.8,30.08,East,94,0.0,1.0,94,0.00,,---,0.38,VWS V13.01,2013-01-14 20:33:00,
2013-01-14 14:38:00,71.7,69.9,30.08,ESE,112,0.0,3.0,94,0.00,,---,0.38,VWS V13.01,2013-01-14 20:38:00,
2013-01-14 14:43:00,71.6,69.8,30.08,SSE,167,0.0,2.0,94,0.00,,---,0.38,VWS V13.01,2013-01-14 20:43:00,
2013-01-14 14:48:00,71.6,69.8,30.09,South,178,0.0,0.0,94,0.00,,---,0.38,VWS V13.01,2013-01-14 20:48:00,
2013-01-14 14:53:00,71.5,69.7,30.09,SSW,198,0.0,0.0,94,0.00,,---,0.38,VWS V13.01,2013-01-14 20:53:00,
2013-01-14 14:58:00,71.7,69.9,30.09,ESE,113,0.0,2.0,94,0.00,,---,0.38,VWS V13.01,2013-01-14 20:58:00,
2013-01-14 15:03:00,71.7,69.9,30.09,South,178,0.0,5.0,94,0.00,,---,0.38,VWS V13.01,2013-01-14 21:03:00,
2013-01-14 15:08:00,71.7,69.9,30.09,SSW,198,0.0,1.0,94,0.00,,---,0.38,VWS V13.01,2013-01-14 21:08:00,
2013-01-14 15:13:00,71.7,69.9,30.09,SE,124,0.0,3.0,94,0.00,,---,0.38,VWS V13.01,2013-01-14 21:13:00,
2013-01-14 15:18:00,71.8,70.0,30.09,SSW,205,0.0,2.0,94,0.00,,---,0.38,VWS V13.01,2013-01-14 21:18:00,
2013-01-14 15:23:00,71.8,70.0,30.09,SSE,163,0.0,1.0,94,0.00,,---,0.38,VWS V13.01,2013-01-14 21:23:00,
2013-01-14 15:28:00,71.7,69.9,30.09,SE,145,0.0,1.0,94,0.00,,---,0.38,VWS V13.01,2013-01-14 21:28:00,
2013-01-14 15:33:00,71.8,70.0,30.09,SSE,159,0.0,5.0,94,0.00,,---,0.38,VWS V13.01,2013-01-14 21:33:00,
2013-01-14 15:38:00,71.7,69.9,30.09,SSW,211,0.0,3.0,94,0.00,,---,0.38,VWS V13.01,2013-01-14 21:38:00,
2013-01-14 15:43:00,71.7,69.9,30.10,East,94,0.0,0.0,94,0.00,,---,0.38,VWS V13.01,2013-01-14 21:43:00,
2013-01-14 15:48:00,71.7,69.9,30.10,East,94,0.0,1.0,94,0.00,,---,0.38,VWS V13.01,2013-01-14 21:48:00,
2013-01-14 15:53:00,71.7,69.6,30.10,East,92,0.0,1.0,93,0.00,,---,0.38,VWS V13.01,2013-01-14 21:53:00,
2013-01-14 15:58:00,71.7,69.6,30.10,SSW,212,0.0,1.0,93,0.00,,---,0.38,VWS V13.01,2013-01-14 21:58:00,
2013-01-14 16:03:00,71.7,69.6,30.10,SSW,211,0.0,0.0,93,0.00,,---,0.38,VWS V13.01,2013-01-14 22:03:00,
2013-01-14 16:08:00,71.6,69.5,30.10,ESE,122,0.0,0.0,93,0.00,,---,0.38,VWS V13.01,2013-01-14 22:08:00,
2013-01-14 16:13:00,71.6,69.5,30.10,ESE,123,0.0,0.0,93,0.00,,---,0.38,VWS V13.01,2013-01-14 22:13:00,
2013-01-14 16:18:00,71.6,69.5,30.10,ESE,121,0.0,0.0,93,0.00,,---,0.38,VWS V13.01,2013-01-14 22:18:00,
2013-01-14 16:23:00,71.5,69.4,30.10,ESE,121,0.0,0.0,93,0.00,,---,0.38,VWS V13.01,2013-01-14 22:23:00,
2013-01-14 16:28:00,71.4,69.3,30.10,ESE,121,0.0,0.0,93,0.00,,---,0.38,VWS V13.01,2013-01-14 22:28:00,
2013-01-14 16:33:00,71.4,69.3,30.10,ESE,121,0.0,1.0,93,0.00,,---,0.38,VWS V13.01,2013-01-14 22:33:00,
2013-01-14 16:38:00,71.3,69.2,30.10,ESE,121,0.0,0.0,93,0.00,,---,0.38,VWS V13.01,2013-01-14 22:38:00,
2013-01-14 16:42:00,71.2,69.1,30.10,SSW,205,0.0,1.0,93,0.00,,---,0.38,VWS V13.01,2013-01-14 22:42:00,
2013-01-14 16:47:00,71.1,69.0,30.10,SE,134,0.0,3.0,93,0.00,,---,0.38,VWS V13.01,2013-01-14 22:47:00,
2013-01-14 16:52:00,71.0,68.9,30.10,ESE,120,0.0,1.0,93,0.00,,---,0.38,VWS V13.01,2013-01-14 22:52:00,
2013-01-14 16:57:00,71.0,68.9,30.10,SW,219,0.0,0.0,93,0.00,,---,0.38,VWS V13.01,2013-01-14 22:57:00,
2013-01-14 17:02:00,70.8,68.7,30.11,ESE,113,0.0,3.0,93,0.00,,---,0.38,VWS V13.01,2013-01-14 23:02:00,
2013-01-14 17:07:00,70.8,68.7,30.11,SSW,211,0.0,0.0,93,0.00,,---,0.38,VWS V13.01,2013-01-14 23:07:00,
2013-01-14 17:12:00,70.7,68.6,30.11,SE,136,0.0,1.0,93,0.00,,---,0.38,VWS V13.01,2013-01-14 23:12:00,
2013-01-14 17:17:00,70.6,68.5,30.11,SE,129,0.0,1.0,93,0.00,,---,0.38,VWS V13.01,2013-01-14 23:17:00,
2013-01-14 17:22:00,70.6,68.5,30.11,SE,124,0.0,0.0,93,0.00,,---,0.38,VWS V13.01,2013-01-14 23:22:00,
2013-01-14 17:27:00,70.5,68.4,30.11,ESE,122,0.0,1.0,93,0.00,,---,0.38,VWS V13.01,2013-01-14 23:27:00,
2013-01-14 17:32:00,70.5,68.4,30.11,SSE,155,0.0,0.0,93,0.00,,---,0.38,VWS V13.01,2013-01-14 23:32:00,
2013-01-14 17:37:00,70.4,68.3,30.12,SE,144,0.0,0.0,93,0.00,,---,0.38,VWS V13.01,2013-01-14 23:37:00,
2013-01-14 17:42:00,70.3,68.2,30.12,SSE,147,0.0,1.0,93,0.00,,---,0.38,VWS V13.01,2013-01-14 23:42:00,
2013-01-14 17:47:00,70.3,68.2,30.12,South,179,0.0,0.0,93,0.00,,---,0.38,VWS V13.01,2013-01-14 23:47:00,
2013-01-14 17:52:00,70.3,68.2,30.12,South,178,0.0,0.0,93,0.00,,---,0.38,VWS V13.01,2013-01-14 23:52:00,
2013-01-14 17:57:00,70.2,68.1,30.12,East,90,0.0,1.0,93,0.00,,---,0.38,VWS V13.01,2013-01-14 23:57:00,
2013-01-14 18:02:00,70.2,68.1,30.12,SW,219,2.0,5.0,93,0.00,,---,0.38,VWS V13.01,2013-01-15 00:02:00,
2013-01-14 18:07:00,70.1,68.3,30.12,SSW,194,0.0,0.0,94,0.00,,---,0.38,VWS V13.01,2013-01-15 00:07:00,
2013-01-14 18:12:00,70.1,68.3,30.11,SSW,194,0.0,0.0,94,0.00,,---,0.38,VWS V13.01,2013-01-15 00:12:00,
2013-01-14 18:17:00,70.1,68.3,30.11,SSW,194,0.0,0.0,94,0.00,,---,0.38,VWS V13.01,2013-01-15 00:17:00,
2013-01-14 18:22:00,70.0,68.2,30.11,SSW,194,0.0,0.0,94,0.00,,---,0.38,VWS V13.01,2013-01-15 00:22:00,
2013-01-14 18:27:00,70.0,68.2,30.11,SSE,160,0.0,3.0,94,0.00,,---,0.38,VWS V13.01,2013-01-15 00:27:00,
2013-01-14 18:32:00,70.0,68.2,30.11,SE,144,0.0,0.0,94,0.00,,---,0.38,VWS V13.01,2013-01-15 00:32:00,
2013-01-14 18:37:00,69.9,68.1,30.11,SE,144,0.0,0.0,94,0.00,,---,0.38,VWS V13.01,2013-01-15 00:37:00,
2013-01-14 18:42:00,69.9,68.1,30.11,SE,144,0.0,0.0,94,0.00,,---,0.38,VWS V13.01,2013-01-15 00:42:00,
2013-01-14 18:47:00,69.8,68.0,30.11,SE,144,0.0,0.0,94,0.00,,---,0.38,VWS V13.01,2013-01-15 00:47:00,
2013-01-14 18:52:00,69.9,68.1,30.11,SE,145,0.0,0.0,94,0.00,,---,0.38,VWS V13.01,2013-01-15 00:52:00,
2013-01-14 18:57:00,69.8,68.0,30.11,SE,145,0.0,0.0,94,0.00,,---,0.38,VWS V13.01,2013-01-15 00:57:00,
2013-01-14 19:02:00,69.8,68.0,30.11,SE,145,0.0,0.0,94,0.00,,---,0.38,VWS V13.01,2013-01-15 01:02:00,
2013-01-14 19:07:00,69.8,68.0,30.10,SSE,150,0.0,1.0,94,0.00,,---,0.38,VWS V13.01,2013-01-15 01:07:00,
2013-01-14 19:12:00,69.7,67.9,30.10,East,95,0.0,3.0,94,0.00,,---,0.38,VWS V13.01,2013-01-15 01:12:00,
2013-01-14 19:17:00,69.7,67.9,30.10,East,100,0.0,0.0,94,0.00,,---,0.38,VWS V13.01,2013-01-15 01:17:00,
2013-01-14 19:22:00,69.7,67.9,30.10,East,100,0.0,1.0,94,0.00,,---,0.38,VWS V13.01,2013-01-15 01:22:00,
2013-01-14 19:27:00,69.7,67.9,30.10,East,100,0.0,0.0,94,0.00,,---,0.38,VWS V13.01,2013-01-15 01:27:00,
2013-01-14 19:32:00,69.6,67.8,30.10,East,100,0.0,0.0,94,0.00,,---,0.38,VWS V13.01,2013-01-15 01:32:00,
2013-01-14 19:37:00,69.6,67.8,30.10,ESE,107,0.0,4.0,94,0.00,,---,0.38,VWS V13.01,2013-01-15 01:37:00,
2013-01-14 19:42:00,69.6,67.8,30.09,ESE,107,0.0,2.0,94,0.00,,---,0.38,VWS V13.01,2013-01-15 01:42:00,
2013-01-14 19:47:00,69.6,67.8,30.09,ESE,111,0.0,0.0,94,0.00,,---,0.38,VWS V13.01,2013-01-15 01:47:00,
2013-01-14 19:52:00,69.6,67.8,30.10,ESE,111,0.0,0.0,94,0.00,,---,0.38,VWS V13.01,2013-01-15 01:52:00,
2013-01-14 19:57:00,69.5,67.7,30.10,ESE,111,0.0,0.0,94,0.00,,---,0.38,VWS V13.01,2013-01-15 01:57:00,
2013-01-14 20:02:00,69.5,67.7,30.10,ESE,111,0.0,0.0,94,0.00,,---,0.38,VWS V13.01,2013-01-15 02:02:00,
2013-01-14 20:07:00,69.5,67.7,30.09,ESE,122,0.0,0.0,94,0.00,,---,0.38,VWS V13.01,2013-01-15 02:07:00,
2013-01-14 20:12:00,69.5,68.0,30.10,SE,136,0.0,0.0,95,0.00,,---,0.38,VWS V13.01,2013-01-15 02:12:00,
2013-01-14 20:17:00,69.5,68.0,30.10,South,183,0.0,2.0,95,0.00,,---,0.38,VWS V13.01,2013-01-15 02:17:00,
2013-01-14 20:22:00,69.4,67.9,30.10,East,101,0.0,0.0,95,0.00,,---,0.38,VWS V13.01,2013-01-15 02:22:00,
2013-01-14 20:27:00,69.4,67.9,30.10,East,101,0.0,1.0,95,0.00,,---,0.38,VWS V13.01,2013-01-15 02:27:00,
2013-01-14 20:32:00,69.4,67.9,30.10,East,101,0.0,0.0,95,0.00,,---,0.38,VWS V13.01,2013-01-15 02:32:00,
2013-01-14 20:37:00,69.4,67.6,30.10,East,101,0.0,0.0,94,0.00,,---,0.38,VWS V13.01,2013-01-15 02:37:00,
2013-01-14 20:42:00,69.4,67.9,30.10,East,101,0.0,0.0,95,0.00,,---,0.38,VWS V13.01,2013-01-15 02:42:00,
2013-01-14 20:47:00,69.4,67.9,30.09,ESE,103,0.0,2.0,95,0.00,,---,0.38,VWS V13.01,2013-01-15 02:47:00,
2013-01-14 20:52:00,69.3,67.8,30.09,ESE,103,0.0,0.0,95,0.00,,---,0.38,VWS V13.01,2013-01-15 02:52:00,
2013-01-14 20:57:00,69.3,67.8,30.09,ESE,108,0.0,4.0,95,0.00,,---,0.38,VWS V13.01,2013-01-15 02:57:00,
2013-01-14 21:02:00,69.3,67.8,30.09,ESE,106,1.0,2.0,95,0.00,,---,0.38,VWS V13.01,2013-01-15 03:02:00,
2013-01-14 21:07:00,69.3,67.8,30.09,ESE,106,0.0,0.0,95,0.00,,---,0.38,VWS V13.01,2013-01-15 03:07:00,
2013-01-14 21:12:00,69.3,67.8,30.09,ESE,111,0.0,2.0,95,0.00,,---,0.38,VWS V13.01,2013-01-15 03:12:00,
2013-01-14 21:17:00,69.2,67.7,30.09,ESE,109,0.0,1.0,95,0.00,,---,0.38,VWS V13.01,2013-01-15 03:17:00,
2013-01-14 21:22:00,69.2,67.7,30.09,SSE,152,0.0,3.0,95,0.00,,---,0.38,VWS V13.01,2013-01-15 03:22:00,
2013-01-14 21:27:00,69.2,67.7,30.09,ESE,107,0.0,0.0,95,0.00,,---,0.38,VWS V13.01,2013-01-15 03:27:00,
2013-01-14 21:32:00,69.2,67.7,30.09,ESE,120,0.0,0.0,95,0.00,,---,0.38,VWS V13.01,2013-01-15 03:32:00,
2013-01-14 21:37:00,69.2,67.7,30.09,ESE,123,0.0,9.0,95,0.00,,---,0.38,VWS V13.01,2013-01-15 03:37:00,
2013-01-14 21:42:00,69.1,67.6,30.09,SE,126,0.0,0.0,95,0.00,,---,0.38,VWS V13.01,2013-01-15 03:42:00,
2013-01-14 21:47:00,69.1,67.6,30.09,ESE,123,0.0,0.0,95,0.00,,---,0.38,VWS V13.01,2013-01-15 03:47:00,
2013-01-14 21:52:00,69.1,67.6,30.09,ESE,123,0.0,1.0,95,0.00,,---,0.38,VWS V13.01,2013-01-15 03:52:00,
2013-01-14 21:57:00,69.1,67.6,30.09,ESE,123,0.0,0.0,95,0.00,,---,0.38,VWS V13.01,2013-01-15 03:57:00,
2013-01-14 22:02:00,69.1,67.6,30.09,SE,125,0.0,0.0,95,0.00,,---,0.38,VWS V13.01,2013-01-15 04:02:00,
2013-01-14 22:07:00,69.0,67.5,30.09,East,94,0.0,3.0,95,0.00,,---,0.38,VWS V13.01,2013-01-15 04:07:00,
2013-01-14 22:12:00,69.0,67.5,30.09,ESE,108,0.0,0.0,95,0.00,,---,0.38,VWS V13.01,2013-01-15 04:12:00,
2013-01-14 22:17:00,69.0,67.5,30.09,ESE,117,0.0,5.0,95,0.00,,---,0.38,VWS V13.01,2013-01-15 04:17:00,
2013-01-14 22:22:00,69.0,67.5,30.09,ESE,117,0.0,1.0,95,0.00,,---,0.38,VWS V13.01,2013-01-15 04:22:00,
2013-01-14 22:27:00,69.0,67.5,30.08,ESE,118,0.0,5.0,95,0.00,,---,0.38,VWS V13.01,2013-01-15 04:27:00,
2013-01-14 22:32:00,69.0,67.5,30.08,ESE,118,0.0,1.0,95,0.00,,---,0.38,VWS V13.01,2013-01-15 04:32:00,
2013-01-14 22:37:00,69.0,67.5,30.08,ESE,118,0.0,0.0,95,0.00,,---,0.38,VWS V13.01,2013-01-15 04:37:00,
2013-01-14 22:42:00,69.0,67.5,30.08,ESE,111,0.0,4.0,95,0.00,,---,0.38,VWS V13.01,2013-01-15 04:42:00,
2013-01-14 22:47:00,69.0,67.5,30.08,ESE,110,0.0,0.0,95,0.00,,---,0.38,VWS V13.01,2013-01-15 04:47:00,
2013-01-14 22:52:00,68.9,67.4,30.08,ESE,107,0.0,0.0,95,0.00,,---,0.38,VWS V13.01,2013-01-15 04:52:00,
2013-01-14 22:57:00,68.9,67.4,30.08,ESE,105,0.0,1.0,95,0.00,,---,0.38,VWS V13.01,2013-01-15 04:57:00,
2013-01-14 23:00:00,68.9,67.4,30.08,ESE,105,0.0,1.0,95,0.00,,---,0.38,VWS V13.01,2013-01-15 05:00:00,
2013-01-14 23:01:00,68.9,67.4,30.08,ESE,105,0.0,0.0,95,0.00,,---,0.38,VWS V13.01,2013-01-15 05:01:00,
2013-01-14 23:02:00,68.9,67.4,30.08,ESE,105,0.0,0.0,95,0.00,,---,0.38,VWS V13.01,2013-01-15 05:02:00,
2013-01-14 23:07:00,68.8,67.3,30.08,ESE,115,0.0,1.0,95,0.00,,---,0.38,VWS V13.01,2013-01-15 05:07:00,
2013-01-14 23:12:00,68.8,67.3,30.08,ESE,107,0.0,3.0,95,0.00,,---,0.38,VWS V13.01,2013-01-15 05:12:00,
2013-01-14 23:17:00,68.8,67.3,30.09,ESE,107,0.0,0.0,95,0.00,,---,0.38,VWS V13.01,2013-01-15 05:17:00,
2013-01-14 23:22:00,68.8,67.3,30.08,ESE,115,0.0,0.0,95,0.00,,---,0.38,VWS V13.01,2013-01-15 05:22:00,
2013-01-14 23:27:00,68.8,67.3,30.08,East,101,0.0,4.0,95,0.00,,---,0.38,VWS V13.01,2013-01-15 05:27:00,
2013-01-14 23:32:00,68.8,67.3,30.08,East,96,0.0,3.0,95,0.00,,---,0.38,VWS V13.01,2013-01-15 05:32:00,
2013-01-14 23:37:00,68.8,67.3,30.08,ESE,105,0.0,0.0,95,0.00,,---,0.38,VWS V13.01,2013-01-15 05:37:00,
2013-01-14 23:42:00,68.8,67.3,30.08,East,101,0.0,4.0,95,0.00,,---,0.38,VWS V13.01,2013-01-15 05:42:00,
2013-01-14 23:47:00,68.8,67.3,30.08,East,99,0.0,1.0,95,0.00,,---,0.38,VWS V13.01,2013-01-15 05:47:00,
2013-01-14 23:52:00,68.8,67.3,30.08,East,98,0.0,1.0,95,0.00,,---,0.38,VWS V13.01,2013-01-15 05:52:00,
2013-01-14 23:57:00,68.8,67.3,30.08,ESE,110,0.0,0.0,95,0.00,,---,0.38,VWS V13.01,2013-01-15 05:57:00,